World > North America > United States > Arizona
Hourly Weather in Sahuarita, ArizonaSahuarita, Arizona Hourly Weather

Sahuarita, AZ Hourly Weather

Hourly Weather Sahuarita, ArizonaHourly Weather in Sahuarita, AZ
Lat: 31.96N, Lon: 110.95W  ICAO: KTUS
Web Search

Helpful Tip: You can add this page to Bookmarks by pressing the Ctrl key & d key at the same time. Mac users press command & d.

Feedback

Sahuarita Hourly Weather

36 Hour Weather Scroll   °F Click to change Sahuarita hourly weather to Imperial units.Click to change Sahuarita hourly weather to Metric units. °C
Currently, Overcast, temperature is 69°F21°C, dew point 59°F15°C, humidity 70%. Wind direction is SE at 6 mph10 km/h with visibility of 10.00 mi16 km. Barometric pressure is 29.85 in1011 mb.

Sep 28
5:00 AM

Sep 28
6:00 AM

Sep 28
7:00 AM

Sep 28
8:00 AM

Sep 28
9:00 AM

Sep 28
10:00 AM

Sep 28
11:00 AM

Sep 28
NOON

Sep 28
1:00 PM

Sep 28
2:00 PM

Sep 28
3:00 PM

Sep 28
4:00 PM

Sep 28
5:00 PM

Sep 28
6:00 PM

Sep 28
7:00 PM

Sep 28
8:00 PM

Sep 28
9:00 PM

Sep 28
10:00 PM

Sep 28
11:00 PM

Sep 29
MIDNIGHT

Sep 29
1:00 AM

Sep 29
2:00 AM

Sep 29
3:00 AM

Sep 29
4:00 AM

Sep 29
5:00 AM

Sep 29
6:00 AM

Sep 29
7:00 AM

Sep 29
8:00 AM

Sep 29
9:00 AM

Sep 29
10:00 AM

Sep 29
11:00 AM

Sep 29
NOON

Sep 29
1:00 PM

Sep 29
2:00 PM

Sep 29
3:00 PM

Sep 29
4:00 PM
Cloudy Cloudy Cloudy Clear Clear Clear Clear Clear Clear Clear Clear Clear Mostly Clear Mostly Clear Mostly Clear Clear Clear Clear Clear Clear Clear Clear Clear Clear Clear Clear Clear Clear Clear Clear Clear Clear Clear Partly Cloudy Partly Cloudy Partly Cloudy
Cloudy Cloudy Cloudy Clear Clear Clear Clear Clear Clear Clear Clear Clear Mostly Clear Mostly Clear Mostly Clear Clear Clear Clear Clear Clear Clear Clear Clear Clear Clear Clear Clear Clear Clear Clear Clear Clear Clear Partly Cloudy Partly Cloudy Partly Cloudy
66°F19°C 65°F18°C 66°F19°C 67°F19°C 68°F20°C 72°F22°C 75°F24°C 79°F26°C 81°F27°C 82°F28°C 84°F29°C 84°F29°C 84°F29°C 84°F29°C 82°F28°C 80°F27°C 78°F26°C 76°F24°C 75°F24°C 73°F23°C 72°F22°C 70°F21°C 69°F21°C 68°F20°C 68°F20°C 67°F19°C 68°F20°C 68°F20°C 69°F21°C 72°F22°C 75°F24°C 78°F26°C 79°F26°C 81°F27°C 82°F28°C 81°F27°C
Rain Rain - - - - - - - - - - - - - - - - - - - - - - - - - - - - - - - - - -
21% 21% 10% 10% 10% 10% 10% 10% 6% 6% 6% 6% 6% 6% 0% 0% 0% 0% 0% 0% 1% 1% 1% 1% 1% 1% 0% 0% 0% 0% 0% 0% 7% 7% 7% 7%
55°F13°C 55°F13°C 55°F13°C 56°F13°C 56°F13°C 55°F13°C 54°F12°C 53°F12°C 52°F11°C 51°F11°C 50°F10°C 50°F10°C 49°F9°C 49°F9°C 50°F10°C 50°F10°C 51°F11°C 51°F11°C 52°F11°C 52°F11°C 52°F11°C 53°F12°C 53°F12°C 53°F12°C 53°F12°C 53°F12°C 53°F12°C 52°F11°C 52°F11°C 51°F11°C 50°F10°C 49°F9°C 48°F9°C 48°F9°C 47°F8°C 48°F9°C
68% 70% 68% 68% 66% 55% 48% 41% 37% 34% 31% 31% 30% 30% 33% 35% 39% 42% 45% 48% 49% 55% 57% 59% 59% 61% 59% 57% 55% 48% 41% 36% 34% 32% 29% 32%
SSE SSE SSE SSE SSE S S SW SW SW SW SW SW SW SSE SSE S S S S S S S SSE SSE SSE SSE SSE SSE SSE S S S SSE SSE SSE
6 mph 6 mph 6 mph 7 mph 7 mph 7 mph 7 mph 7 mph 7 mph 7 mph 7 mph 7 mph 8 mph 8 mph 8 mph 8 mph 8 mph 8 mph 8 mph 8 mph 8 mph 5 mph 5 mph 5 mph 5 mph 5 mph 5 mph 4 mph 4 mph 4 mph 6 mph 6 mph 6 mph 7 mph 7 mph 7 mph
10 mi16 km 10 mi16 km 10 mi16 km 10 mi16 km 10 mi16 km 10 mi16 km 10 mi16 km 10 mi16 km 10 mi16 km 10 mi16 km 10 mi16 km 10 mi16 km 10 mi16 km 10 mi16 km 10 mi16 km 10 mi16 km 10 mi16 km 10 mi16 km 10 mi16 km 10 mi16 km 10 mi16 km 10 mi16 km 10 mi16 km 10 mi16 km 10 mi16 km 10 mi16 km 10 mi16 km 10 mi16 km 10 mi16 km 10 mi16 km 10 mi16 km 10 mi16 km 10 mi16 km 10 mi16 km 10 mi16 km 10 mi16 km
Hour (MDT)
Weather
Clouds
Temperature
Precip. Type
POP
Dewpoint
Humidity
Wind Direction
Wind Speed
Visibility
POP = Probability of Precipitation. ** Indicates missing data/values from model statistics.

24 Hour Forecast

Today - Mostly sunny. Slight chance of showers in the morning, then slight chance of showers and thunderstorms in the afternoon. Highs 82 to 88. South wind around 10 mph becoming southwest in the afternoon. Chance of precipitation 10%.
Tonight - Mostly clear. Lows 57 to 63. Southwest wind 5 to 10 mph becoming southeast after midnight.

48 Hour Forecast API Feed


Tue, Sep 28
4:00 am

Tue, Sep 28
5:00 am

Tue, Sep 28
6:00 am

Tue, Sep 28
7:00 am

Tue, Sep 28
8:00 am

Tue, Sep 28
9:00 am

Tue, Sep 28
10:00 am

Tue, Sep 28
11:00 am

Tue, Sep 28
Noon

Tue, Sep 28
1:00 pm

Tue, Sep 28
2:00 pm

Tue, Sep 28
3:00 pm

Tue, Sep 28
4:00 pm

Tue, Sep 28
5:00 pm

Tue, Sep 28
6:00 pm

Tue, Sep 28
7:00 pm

Tue, Sep 28
8:00 pm

Tue, Sep 28
9:00 pm

Tue, Sep 28
10:00 pm

Tue, Sep 28
11:00 pm

Wed, Sep 29
Midnight

Wed, Sep 29
1:00 am

Wed, Sep 29
2:00 am

Wed, Sep 29
3:00 am

Wed, Sep 29
4:00 am

Wed, Sep 29
5:00 am

Wed, Sep 29
6:00 am

Wed, Sep 29
7:00 am

Wed, Sep 29
8:00 am

Wed, Sep 29
9:00 am

Wed, Sep 29
10:00 am

Wed, Sep 29
11:00 am

Wed, Sep 29
Noon

Wed, Sep 29
1:00 pm

Wed, Sep 29
2:00 pm

Wed, Sep 29
3:00 pm

Wed, Sep 29
4:00 pm

Wed, Sep 29
5:00 pm

Wed, Sep 29
6:00 pm

Wed, Sep 29
7:00 pm

Wed, Sep 29
8:00 pm

Wed, Sep 29
9:00 pm

Wed, Sep 29
10:00 pm

Wed, Sep 29
11:00 pm

Thu, Sep 30
Midnight

Thu, Sep 30
1:00 am

Thu, Sep 30
2:00 am

Thu, Sep 30
3:00 am
Partly CloudyPartly CloudyPartly CloudyPartly CloudyPartly CloudyPartly CloudyPartly CloudyPartly CloudyPartly CloudyPartly CloudyPartly CloudyPartly CloudyPartly CloudyPartly CloudyPartly CloudyPartly CloudyPartly CloudyPartly CloudyPartly CloudyPartly CloudyPartly CloudyPartly CloudyPartly CloudyPartly CloudyPartly CloudyPartly CloudyPartly CloudyPartly CloudyPartly CloudyPartly CloudyPartly CloudyPartly CloudyPartly CloudyPartly CloudyPartly CloudyPartly CloudyPartly CloudyPartly CloudyThundery Outbreaks PossiblePartly CloudyPartly CloudyPatchy Light Rain With ThunderPatchy Rain PossiblePatchy Rain PossiblePatchy Light Rain With ThunderModerate Rain At TimesPatchy Rain PossiblePatchy Light Rain With Thunder
Partly cloudy Partly cloudy Partly cloudy Partly cloudy Partly cloudy Partly cloudy Partly cloudy Partly cloudy Partly cloudy Partly cloudy Partly cloudy Partly cloudy Partly cloudy Partly cloudy Partly cloudy Partly cloudy Partly cloudy Partly cloudy Partly cloudy Partly cloudy Partly cloudy Partly cloudy Partly cloudy Partly cloudy Partly cloudy Partly cloudy Partly cloudy Partly cloudy Partly cloudy Partly cloudy Partly cloudy Partly cloudy Partly cloudy Partly cloudy Partly cloudy Partly cloudy Partly cloudy Partly cloudy Thundery outbreaks possible Partly cloudy Partly cloudy Patchy light rain with thunder Patchy rain possible Patchy rain possible Patchy light rain with thunder Moderate rain at times Patchy rain possible Patchy light rain with thunder
67°F
20°C
67°F
20°C
64°F
18°C
62°F
17°C
66°F
19°C
70°F
21°C
73°F
23°C
77°F
25°C
84°F
29°C
85°F
30°C
86°F
30°C
86°F
30°C
85°F
30°C
84°F
29°C
82°F
28°C
79°F
26°C
71°F
22°C
69°F
21°C
68°F
20°C
66°F
19°C
65°F
18°C
64°F
18°C
63°F
17°C
63°F
17°C
62°F
17°C
62°F
16°C
61°F
16°C
60°F
16°C
63°F
17°C
69°F
21°C
73°F
23°C
78°F
25°C
84°F
29°C
85°F
30°C
86°F
30°C
82°F
28°C
82°F
28°C
80°F
27°C
79°F
26°C
76°F
25°C
71°F
22°C
70°F
21°C
67°F
19°C
67°F
19°C
66°F
19°C
65°F
18°C
65°F
18°C
64°F
18°C
52°F
11°C
53°F
11°C
52°F
11°C
53°F
11°C
57°F
14°C
55°F
13°C
49°F
9°C
45°F
7°C
48°F
9°C
48°F
9°C
50°F
10°C
52°F
11°C
52°F
11°C
51°F
10°C
49°F
9°C
51°F
11°C
47°F
8°C
48°F
9°C
48°F
9°C
48°F
9°C
49°F
9°C
49°F
9°C
49°F
9°C
49°F
9°C
49°F
9°C
49°F
9°C
48°F
9°C
48°F
9°C
51°F
10°C
52°F
11°C
49°F
9°C
48°F
9°C
50°F
10°C
51°F
10°C
52°F
11°C
48°F
9°C
49°F
10°C
51°F
11°C
52°F
11°C
53°F
12°C
51°F
11°C
51°F
11°C
52°F
11°C
53°F
12°C
54°F
12°C
55°F
13°C
56°F
13°C
56°F
13°C
29.88 in
1012 mb
29.88 in
1012 mb
29.88 in
1012 mb
29.91 in
1013 mb
29.91 in
1013 mb
29.91 in
1013 mb
29.91 in
1013 mb
29.91 in
1013 mb
29.88 in
1012 mb
29.85 in
1011 mb
29.85 in
1011 mb
29.83 in
1010 mb
29.8 in
1009 mb
29.8 in
1009 mb
29.77 in
1008 mb
29.8 in
1009 mb
29.83 in
1010 mb
29.83 in
1010 mb
29.85 in
1011 mb
29.85 in
1011 mb
29.85 in
1011 mb
29.85 in
1011 mb
29.85 in
1011 mb
29.85 in
1011 mb
29.85 in
1011 mb
29.85 in
1011 mb
29.85 in
1011 mb
29.88 in
1012 mb
29.88 in
1012 mb
29.88 in
1012 mb
29.88 in
1012 mb
29.88 in
1012 mb
29.88 in
1012 mb
29.85 in
1011 mb
29.83 in
1010 mb
29.8 in
1009 mb
29.8 in
1009 mb
29.8 in
1009 mb
29.83 in
1010 mb
29.83 in
1010 mb
29.83 in
1010 mb
29.85 in
1011 mb
29.88 in
1012 mb
29.88 in
1012 mb
29.91 in
1013 mb
29.91 in
1013 mb
29.91 in
1013 mb
29.91 in
1013 mb
57%60%66%72%73%61%42%32%28%28%29%31%32%32%32%38%42%47%50%53%55%58%60%60%61%62%63%65%64%55%42%35%31%30%30%31%32%36%40%45%49%52%59%62%64%69%73%75%
SSWSSWSSSSSSSWSSWSSWSSWSWSWSWSWSSWSSWSSSSSSSSESSESSESSESSESSESSESSSSSWSSWSSWSWSWSSWSSSSSSWSSWSSWSSWSSE
6 mph
10 km/h
7 mph
11 km/h
8 mph
13 km/h
7 mph
12 km/h
6 mph
10 km/h
7 mph
12 km/h
9 mph
14 km/h
10 mph
15 km/h
10 mph
17 km/h
12 mph
19 km/h
14 mph
22 km/h
15 mph
23 km/h
14 mph
23 km/h
13 mph
22 km/h
13 mph
21 km/h
9 mph
15 km/h
9 mph
14 km/h
9 mph
14 km/h
9 mph
15 km/h
10 mph
15 km/h
9 mph
15 km/h
8 mph
13 km/h
7 mph
12 km/h
7 mph
12 km/h
6 mph
10 km/h
6 mph
10 km/h
6 mph
10 km/h
7 mph
11 km/h
6 mph
9 km/h
6 mph
10 km/h
9 mph
14 km/h
10 mph
16 km/h
11 mph
18 km/h
12 mph
19 km/h
12 mph
19 km/h
13 mph
21 km/h
16 mph
25 km/h
16 mph
25 km/h
13 mph
22 km/h
10 mph
16 km/h
9 mph
14 km/h
8 mph
12 km/h
7 mph
12 km/h
6 mph
9 km/h
5 mph
8 km/h
5 mph
8 km/h
4 mph
6 km/h
3 mph
5 km/h
0%0%0%0%0%0%0%0%0%0%0%0%0%0%0%0%0%0%0%0%0%0%0%0%0%0%0%0%0%0%0%0%0%0%0%0%0%0%0%0%0%89%87%85%83%69%83%79%
6 mi
10 km
6 mi
10 km
6 mi
10 km
6 mi
10 km
6 mi
10 km
6 mi
10 km
6 mi
10 km
6 mi
10 km
6 mi
10 km
6 mi
10 km
6 mi
10 km
6 mi
10 km
6 mi
10 km
6 mi
10 km
6 mi
10 km
6 mi
10 km
6 mi
10 km
6 mi
10 km
6 mi
10 km
6 mi
10 km
6 mi
10 km
6 mi
10 km
6 mi
10 km
6 mi
10 km
6 mi
10 km
6 mi
10 km
6 mi
10 km
6 mi
10 km
6 mi
10 km
6 mi
10 km
6 mi
10 km
6 mi
10 km
6 mi
10 km
6 mi
10 km
6 mi
10 km
6 mi
10 km
6 mi
10 km
6 mi
10 km
6 mi
9 km
6 mi
10 km
6 mi
10 km
6 mi
10 km
6 mi
10 km
6 mi
10 km
6 mi
10 km
6 mi
10 km
6 mi
10 km
6 mi
10 km

Day/Time
Weather
Condition
Temperature
Dew Point
Pressure
Humidity
Wind Direction
Wind Speed
Prob Precip %
Visibility
Prob Precip % = Probability of Precipitation.